Weather History for Rockland, ME

Change the Weather History Date:

Thursday, February 13, 2014

  Actual Average Record
Temperature  
Mean Temperature 20 °F -  
Max Temperature 33 °F 30 °F 48 °F (1999)
Min Temperature 6 °F 15 °F -2 °F (2003)
Degree Days  
Heating Degree Days 46    
Moisture  
Dew Point 23 °F    
Average Humidity 85    
Maximum Humidity 100    
Minimum Humidity 50    
Precipitation  
Precipitation 0.92 in - - ()
Sea Level Pressure  
Sea Level Pressure 30.02 in    
Wind  
Wind Speed 9 mph (NE)    
Max Wind Speed 26 mph    
Max Gust Speed 39 mph    
Visibility 6 miles    
Events      
Averages and records for this station are not official NWS values.
T = Trace of Precipitation, MM = Missing Value Source: NWS Daily Summary

Daily Weather History Graph

Daily Weather History Graph

Search for Another Location

Airport:

Trip Planner

Search our weather history database for the weather conditions in past years. The results will help you decide how hot, cold, wet, or windy it might be!

Date:

Astronomy

Feb. 13, 2014 Rise Set
Actual Time 6:38 AM EST 5:03 PM EST
Civil Twilight 6:08 AM EST 5:33 PM EST
Nautical Twilight 5:34 AM EST 6:06 PM EST
Astronomical Twilight 5:01 AM EST 6:40 PM EST
Moon 4:08 PM EST (2/13) 5:30 AM EST (2/13)
Length of Visible Light 11h 24m
Length of Day
10h 24m
Waxing Gibbous, 98% of the Moon is Illuminated
Feb 13
Waxing Gibbous
Feb 14
Full
Feb 22
Last Quarter
Mar 1
New
Mar 8
First Quarter

Hourly Weather History & Observations

Time (EST) Temp. Windchill Dew Point Humidity Pressure Visibility Wind Dir Wind Speed Gust Speed Precip Events Conditions
12:15 AM 8.6 °F 2.0 °F 3.2 °F 79% 30.43 in 10.0 mi West 3.5 mph - N/A   Clear
12:35 AM 6.8 °F -0.1 °F 1.4 °F 79% 30.42 in 10.0 mi WSW 3.5 mph - N/A   Clear
12:55 AM 6.8 °F -0.1 °F 3.2 °F 85% 30.42 in 10.0 mi SSW 3.5 mph - N/A   Scattered Clouds
1:15 AM 8.6 °F 2.0 °F 6.8 °F 92% 30.41 in 10.0 mi WSW 3.5 mph - N/A   Scattered Clouds
1:35 AM 8.6 °F - 8.6 °F 100% 30.40 in 10.0 mi Calm Calm - N/A   Mostly Cloudy
1:55 AM 10.4 °F 4.0 °F 6.8 °F 85% 30.40 in 10.0 mi West 3.5 mph - N/A   Overcast
2:15 AM 17.6 °F 10.7 °F 6.8 °F 63% 30.40 in 10.0 mi SSW 4.6 mph - N/A   Overcast
2:35 AM 21.2 °F 13.6 °F 15.8 °F 80% 30.39 in 10.0 mi South 5.8 mph - N/A   Overcast
2:55 AM 26.6 °F 20.0 °F 21.2 °F 80% 30.38 in 10.0 mi South 5.8 mph - N/A   Overcast
3:15 AM 28.4 °F 19.1 °F 19.4 °F 69% 30.38 in 10.0 mi South 10.4 mph - N/A   Overcast
3:35 AM 28.4 °F 21.2 °F 19.4 °F 69% 30.39 in 10.0 mi SSW 6.9 mph - N/A   Overcast
3:55 AM 28.4 °F 21.2 °F 19.4 °F 69% 30.39 in 10.0 mi SSW 6.9 mph - N/A   Overcast
4:15 AM 28.4 °F 22.2 °F 21.2 °F 74% 30.38 in 10.0 mi SSW 5.8 mph - N/A   Overcast
4:35 AM 24.8 °F 16.1 °F 15.8 °F 69% 30.39 in 10.0 mi West 8.1 mph - N/A   Overcast
4:55 AM 21.2 °F 12.6 °F 14.0 °F 74% 30.38 in 10.0 mi West 6.9 mph - N/A   Overcast
5:15 AM 21.2 °F 12.6 °F 12.2 °F 68% 30.38 in 10.0 mi West 6.9 mph - N/A   Overcast
5:35 AM 21.2 °F 12.6 °F 12.2 °F 68% 30.38 in 10.0 mi West 6.9 mph - N/A   Overcast
5:55 AM 21.2 °F 13.6 °F 8.6 °F 58% 30.36 in 10.0 mi WNW 5.8 mph - N/A   Overcast
6:15 AM 21.2 °F 12.6 °F 8.6 °F 58% 30.36 in 10.0 mi West 6.9 mph - N/A   Overcast
6:35 AM 21.2 °F 13.6 °F 6.8 °F 54% 30.35 in 10.0 mi WNW 5.8 mph - N/A   Overcast
6:55 AM 23.0 °F 17.0 °F 6.8 °F 50% 30.35 in 10.0 mi WNW 4.6 mph - N/A   Overcast
7:15 AM 23.0 °F - 8.6 °F 54% 30.35 in 10.0 mi Calm Calm - N/A   Overcast
7:35 AM 23.0 °F - 10.4 °F 59% 30.34 in 10.0 mi Calm Calm - N/A   Mostly Cloudy
7:55 AM 23.0 °F - 8.6 °F 54% 30.33 in 10.0 mi Calm Calm - N/A   Scattered Clouds
8:15 AM 24.8 °F 20.5 °F 12.2 °F 59% 30.32 in 10.0 mi NNW 3.5 mph - N/A   Clear
8:35 AM 26.6 °F 19.1 °F 17.6 °F 69% 30.30 in 10.0 mi NNE 6.9 mph - N/A   Clear
8:55 AM 26.6 °F 20.0 °F 19.4 °F 74% 30.29 in 10.0 mi NE 5.8 mph - N/A   Scattered Clouds
9:15 AM 28.4 °F 21.2 °F 21.2 °F 74% 30.29 in 10.0 mi NE 6.9 mph - N/A   Mostly Cloudy
9:35 AM 28.4 °F 22.2 °F 21.2 °F 74% 30.29 in 10.0 mi NNE 5.8 mph - N/A   Scattered Clouds
9:55 AM 30.2 °F 24.3 °F 24.8 °F 80% 30.27 in 10.0 mi East 5.8 mph - N/A   Mostly Cloudy
10:15 AM 32.0 °F 22.1 °F 26.6 °F 80% 30.26 in 10.0 mi ESE 13.8 mph - N/A   Overcast
10:35 AM 32.0 °F 21.6 °F 26.6 °F 80% 30.26 in 10.0 mi ESE 15.0 mph - N/A   Overcast
10:55 AM 32.0 °F 21.6 °F 26.6 °F 80% 30.24 in 10.0 mi ESE 15.0 mph - N/A   Overcast
11:15 AM 32.0 °F 21.6 °F 28.4 °F 87% 30.23 in 2.0 mi East 15.0 mph - N/A   Overcast
11:35 AM 30.2 °F 19.8 °F 30.2 °F 100% 30.20 in 2.5 mi East 13.8 mph - N/A   Overcast
11:55 AM 32.0 °F 22.5 °F 30.2 °F 93% 30.19 in 2.5 mi East 12.7 mph - N/A   Overcast
12:15 PM 32.0 °F 23.0 °F 30.2 °F 93% 30.17 in 3.0 mi East 11.5 mph - N/A   Overcast
12:35 PM 30.2 °F 21.9 °F 28.4 °F 93% 30.15 in 1.2 mi ENE 9.2 mph - N/A   Overcast
12:55 PM 30.2 °F 21.9 °F 28.4 °F 93% 30.14 in 1.0 mi ENE 9.2 mph - N/A   Overcast
1:15 PM 32.0 °F 23.6 °F 30.2 °F 93% 30.11 in 1.2 mi NE 10.4 mph - 0.01 in   Overcast
1:35 PM 32.0 °F 23.0 °F 30.2 °F 93% 30.08 in 1.0 mi ENE 11.5 mph - 0.02 in   Overcast
1:55 PM 32.0 °F 22.5 °F 30.2 °F 93% 30.05 in 1.0 mi NE 12.7 mph 17.3 mph 0.04 in   Overcast
2:35 PM 32.0 °F 22.5 °F 30.2 °F 93% 30.01 in 1.0 mi NE 12.7 mph - 0.03 in   Overcast
2:55 PM 32.0 °F 21.6 °F 32.0 °F 100% 29.98 in 1.0 mi NE 15.0 mph 21.9 mph 0.05 in   Overcast
3:15 PM 32.0 °F 21.2 °F 32.0 °F 100% 29.96 in 1.0 mi NE 16.1 mph 21.9 mph 0.02 in   Overcast
3:35 PM 32.0 °F 22.5 °F 32.0 °F 100% 29.93 in 1.2 mi NNE 12.7 mph 20.7 mph 0.03 in   Overcast
3:55 PM 32.0 °F 21.2 °F 32.0 °F 100% 29.90 in 1.0 mi NE 16.1 mph 20.7 mph 0.06 in   Overcast
4:15 PM 32.0 °F 21.6 °F 30.2 °F 93% 29.88 in 0.8 mi NE 15.0 mph 21.9 mph 0.02 in   Overcast
4:35 PM 32.0 °F 21.6 °F 30.2 °F 93% 29.84 in 0.8 mi NNE 15.0 mph 25.3 mph 0.04 in   Overcast
4:55 PM 32.0 °F 20.5 °F 30.2 °F 93% 29.82 in 0.5 mi NE 18.4 mph 26.5 mph 0.06 in   Overcast
5:15 PM 32.0 °F 20.8 °F 30.2 °F 93% 29.79 in 0.2 mi NE 17.3 mph 24.2 mph 0.02 in   Overcast
5:35 PM 32.0 °F 20.1 °F 32.0 °F 100% 29.76 in 0.8 mi NE 19.6 mph 26.5 mph 0.06 in   Overcast
5:55 PM 32.0 °F 20.8 °F 32.0 °F 100% 29.74 in 0.8 mi NNE 17.3 mph 26.5 mph 0.09 in   Overcast
6:15 PM 32.0 °F 20.1 °F 32.0 °F 100% 29.71 in 0.8 mi NE 19.6 mph 32.2 mph 0.04 in   Overcast
6:35 PM 32.0 °F 19.8 °F 32.0 °F 100% 29.68 in 0.8 mi NE 20.7 mph 35.7 mph 0.08 in   Overcast
6:55 PM 32.0 °F 19.5 °F 32.0 °F 100% 29.64 in 1.5 mi NE 21.9 mph 31.1 mph 0.13 in   Overcast
7:15 PM 32.0 °F 19.2 °F 32.0 °F 100% 29.59 in 1.8 mi NNE 23.0 mph 33.4 mph 0.04 in   Overcast
7:35 PM 32.0 °F 20.1 °F 32.0 °F 100% 29.55 in 2.5 mi NNE 19.6 mph 38.0 mph 0.10 in   Overcast
7:55 PM 32.0 °F 19.8 °F 32.0 °F 100% 29.50 in 2.0 mi NNE 20.7 mph 36.8 mph 0.18 in   Overcast
8:15 PM 33.8 °F 20.8 °F 32.0 °F 93% 29.47 in 2.0 mi NE 26.5 mph 38.0 mph 0.05 in   Overcast
8:35 PM 33.8 °F 22.2 °F 33.8 °F 100% 29.46 in 2.5 mi NE 20.7 mph 39.1 mph 0.09 in   Overcast
8:55 PM 33.8 °F 21.3 °F 33.8 °F 100% 29.42 in 3.0 mi NE 24.2 mph 32.2 mph 0.11 in   Overcast
9:15 PM 33.8 °F 21.3 °F 33.8 °F 100% 29.39 in 2.5 mi NNE 24.2 mph 34.5 mph 0.03 in   Overcast
9:35 PM 33.8 °F 21.3 °F 32.0 °F 93% 29.35 in 2.5 mi NE 24.2 mph 34.5 mph 0.06 in   Overcast
9:55 PM 33.8 °F 21.9 °F 32.0 °F 93% 29.34 in 2.0 mi NNE 21.9 mph 31.1 mph 0.08 in   Overcast
10:15 PM 33.8 °F 21.6 °F 32.0 °F 93% 29.31 in 2.5 mi NE 23.0 mph 32.2 mph 0.02 in   Overcast
10:35 PM 33.8 °F 21.3 °F 33.8 °F 100% 29.29 in 2.5 mi NE 24.2 mph 29.9 mph 0.05 in   Overcast
10:55 PM 33.8 °F 22.2 °F 33.8 °F 100% 29.26 in 2.5 mi NE 20.7 mph 29.9 mph 0.07 in   Overcast
11:15 PM 33.8 °F 22.8 °F 33.8 °F 100% 29.23 in 2.5 mi NE 18.4 mph 28.8 mph 0.03 in   Overcast
11:35 PM 33.8 °F 23.9 °F 33.8 °F 100% 29.21 in 2.5 mi NE 15.0 mph 28.8 mph 0.04 in   Overcast
11:55 PM 33.8 °F 23.2 °F 33.8 °F 100% 29.18 in 3.0 mi NE 17.3 mph 29.9 mph 0.05 in   Overcast